TimePST,TemperatureF,Dew PointF,Humidity,Sea Level PressureIn,VisibilityMPH,Wind Direction,Wind SpeedMPH,Gust SpeedMPH,PrecipitationIn,Events,Conditions,WindDirDegrees,DateUTC
12:56 AM,46.0,35.1,66,29.81,10.0,NNW,16.1,24.2,N/A,,Clear,330,2013-12-19 08:56:00
1:56 AM,46.0,35.1,66,29.78,10.0,NW,12.7,20.7,N/A,,Mostly Cloudy,320,2013-12-19 09:56:00
2:56 AM,46.0,35.1,66,29.78,10.0,NNW,10.4,-,N/A,,Partly Cloudy,340,2013-12-19 10:56:00
3:56 AM,43.0,34.0,71,29.78,10.0,NNE,5.8,-,N/A,,Clear,20,2013-12-19 11:56:00
4:56 AM,42.1,34.0,73,29.77,10.0,Calm,Calm,-,N/A,,Clear,0,2013-12-19 12:56:00
5:56 AM,37.0,30.9,79,29.79,10.0,Calm,Calm,-,N/A,,Clear,0,2013-12-19 13:56:00
6:56 AM,37.0,30.9,79,29.81,10.0,Calm,Calm,-,N/A,,Clear,0,2013-12-19 14:56:00
7:56 AM,35.1,30.0,82,29.83,10.0,Calm,Calm,-,N/A,,Clear,0,2013-12-19 15:56:00
8:56 AM,44.1,32.0,63,29.86,10.0,Calm,Calm,-,N/A,,Clear,0,2013-12-19 16:56:00
9:56 AM,48.0,32.0,54,29.87,10.0,Calm,Calm,-,N/A,,Clear,0,2013-12-19 17:56:00
10:56 AM,55.0,27.0,34,29.86,10.0,North,8.1,-,N/A,,Clear,350,2013-12-19 18:56:00
11:56 AM,57.0,23.0,27,29.84,10.0,NNW,8.1,-,N/A,,Clear,330,2013-12-19 19:56:00
12:56 PM,57.9,24.1,27,29.83,10.0,NW,9.2,-,N/A,,Clear,310,2013-12-19 20:56:00
1:56 PM,59.0,25.0,27,29.83,10.0,Variable,6.9,-,N/A,,Clear,0,2013-12-19 21:56:00
2:56 PM,57.9,24.1,27,29.85,10.0,Variable,4.6,-,N/A,,Clear,0,2013-12-19 22:56:00
3:56 PM,55.9,28.0,34,29.87,10.0,North,3.5,-,N/A,,Clear,350,2013-12-19 23:56:00
4:56 PM,52.0,28.0,40,29.89,10.0,Calm,Calm,-,N/A,,Clear,0,2013-12-20 00:56:00
5:56 PM,45.0,28.9,53,29.89,7.0,Calm,Calm,-,N/A,,Clear,0,2013-12-20 01:56:00
6:56 PM,44.1,28.9,55,29.91,10.0,Calm,Calm,-,N/A,,Clear,0,2013-12-20 02:56:00
7:56 PM,41.0,28.0,60,29.93,10.0,Calm,Calm,-,N/A,,Clear,0,2013-12-20 03:56:00
8:56 PM,37.9,28.0,68,29.94,10.0,Calm,Calm,-,N/A,,Clear,0,2013-12-20 04:56:00
9:56 PM,33.1,27.0,78,29.97,10.0,Calm,Calm,-,N/A,,Clear,0,2013-12-20 05:56:00
10:56 PM,33.1,26.1,75,29.99,8.0,Calm,Calm,-,N/A,,Clear,0,2013-12-20 06:56:00
11:56 PM,32.0,26.1,79,29.98,10.0,Calm,Calm,-,N/A,,Clear,0,2013-12-20 07:56:00